Regional Weather Roundup
Issued by NWS Charleston, SC

Current Version | Previous Version | Graphics & Text | Print | Product List | Glossary On
Versions: 1 2 3 4 5 6 7 8 9 10 11 12 13 14 15 16 17 18 19 20 21 22 23 24 25 26 27 28 29 30 31 32 33 34 35 36 37 38 39 40 41 42 43 44 45 46 47 48 49 50
000
ASUS42 KCHS 220210
RWRCHS

REGIONAL WEATHER ROUNDUP
NATIONAL WEATHER SERVICE CHARLESTON SC
1000 PM EDT THU AUG 21 2014

NOTE: "FAIR" INDICATES FEW OR NO CLOUDS BELOW 12,000 FEET WITH NO
SIGNIFICANT WEATHER AND/OR OBSTRUCTIONS TO VISIBILITY.

NOT ALL STATIONS ARE QUALITY CONTROLLED BY THE NATIONAL
WEATHER SERVICE. USE DATA WITH CAUTION...ESPECIALLY
DEWPOINT OBSERVATIONS.

SCZ027-030-031-034>040-042>050-220300-
...SOUTH CAROLINA...

CITY           SKY/WX    TMP DP  RH WIND       PRES   REMARKS
N CHARLESTON   PTCLDY    86  72  62 CALM      30.06R HX  92
WATERFRONT PRK   N/A     84 N/A N/A SW5         N/A
FORT JOHNSON   NOT AVBL
MOUNT PLEASANT FAIR      82  81  94 CALM      30.05R FOG     HX  95
JOHNS ISLAND   CLEAR     82  82 100 CALM      30.06R HX  97
PINOPOLIS        N/A     88  77  70 MISG      29.98R HX 100
MONCKS CORNER    N/A     81  79  94 CALM      30.05R
SUMMERVILLE    NOT AVBL
BEAUFORT MCAS  CLEAR     84  78  82 CALM      30.06R HX  95
BEAUFORT ARPT  FAIR      82  79  89 S5        30.06R HX  93
HILTON HEAD IS CLEAR     82  81  94 S5        30.08R HX  95
GEORGETOWN     NOT AVBL
WALTERBORO     CLEAR     79  73  83 CALM      30.07R
ORANGEBURG     PTCLDY    81  72  74 CALM      30.07R
BARNWELL       FAIR      81  70  69 CALM      30.08R
AIKEN          FAIR      82  70  65 SE5       30.12R
MANNING        FAIR      79 N/A N/A CALM      30.06R
KINGSTREE      NOT AVBL
COLUMBIA       PTCLDY    86  70  58 CALM      30.06R HX  90
SUMTER         CLEAR     80  74  82 NE2       30.05R
FLORENCE       CLEAR     80  71  74 CALM      30.06R
MYRTLE BEACH   PTCLDY    82  73  74 SW3       30.06R
N MYRTLE BEACH CLEAR     77  75  93 CALM      30.05R

$$

GAZ063-065-086>088-099>101-113>116-118-119-134-136>141-150-220300-
...GEORGIA...

CITY           SKY/WX    TMP DP  RH WIND       PRES   REMARKS
SAVANNAH ARPT  CLEAR     84  74  71 CALM      30.07R HX  91
HUNTER AAF     CLEAR     84  74  73 SE2       30.05R HX  91
FORT STEWART   CLEAR     80  72  75 CALM      30.05R
STATESBORO     NOT AVBL
SYLVANIA       CLEAR     79  76  91 CALM      30.08R
CLAXTON        FAIR      79  79 100 CALM      30.07R
THOMSON        PTCLDY    78  76  94 CALM      30.12S
AUGUSTA-BUSH   CLEAR     79  72  79 CALM      30.06R
AUGUSTA-DANIEL CLEAR     88  67  49 NW3       30.08R HX  91
SWAINSBORO     FAIR      81  73  78 CALM      30.09R
VIDALIA          N/A     81  73  78 CALM      30.08R
ALMA           CLEAR     85  72  65 NW6       30.08R HX  91
WAYCROSS       CLEAR     87  77  71 NW5       30.08R HX  98
JESUP            N/A     81  75  83 CALM      30.07R
BRUNSWICK      CLEAR     86  75  70 S6        30.08S HX  95
SAINT SIMONS   CLEAR     85  75  72 S6        30.07R HX  93

$$

SCZ027-028-034-036>038-045-046-048>050-GAZ119-141-220300-
...LAKE AND SUPPLEMENTAL COASTAL OBSERVATIONS...

STATION/POSITION TIME  TEMP    WIND        PRES    WAVE   SWELL
                       AIR SEA DIR/SP/G            HT/PER HT/PER/DIR
                 (UTC) (F)     (DEG/KT/KT) (MB)    (FT/S) (FT/S/D)
UPR LAKE MARION  NOT AVBL
WINYAH BAY       0100   82     240/  2     1017.0S
LAKE MURRAY      0100   86        CALM     1017.3R
ACE BASIN NERRS  0100   83        CALM     1017.0S
FORT PULASKI     0200   84     150/  3/  5 1018.2S
SAPELO ISLAND    0100   86     170/  5     1018.0S

$$

ANZ835-935-AMZ111-154-330-350-352-354-374-450-454-472-220300-
...C-MAN AND BUOY OBSERVATIONS...

STATION/POSITION TIME  TEMP    WIND        PRES    WAVE   SWELL
                       AIR SEA DIR/SP/G            HT/PER HT/PER/DIR
                 (UTC) (F)     (DEG/KT/KT) (MB)    (FT/S) (FT/S/D)
FOLLY BEACH CMAN 0200   84     220/  5/  7 1018.2R
BUOY 41004       0200   84 85  210/  4/  4 1017.5R   2/ 8   2/ 8
BUOY 41008       0200   85 85  200/ 12/ 14 1018.2R   1/ 8
5E ST. MARYS GA  0200      83                N/A     1/ 3
FRYING PAN BUOY  NOT AVBL
BUOY 41025       0200   81     210/  8/ 10 1016.9R   2/ 9   2/ 60/ 9
CAPE LOOKOUT NC  0200   82     230/  6/  6 1017.2R
BUOY 41002       0104   82 82  240/ 10/ 10 1018.9    2/ 5   2/250/ 5
BUOY 41010       0200   85 86  190/  6/  6 1020.0R   1/ 8   2/ 90/ 8
BUOY 41012       NOT AVBL
ST AUGUSTINE FL  0200   80     260/ 11/ 15 1020.1R
CAPERS NEARSHORE 0100   85     240/  6/  8   N/A
FRIPP NEARSHORE  NOT AVBL


$$


USA.gov is the U.S. government's official web portal to all federal, state and local government web resources and services.